Location: Boca do Mato
(22.9085°S, 43.2930°W)
Time: 22:01:41
(UTC+00:00)

YAOGAN 6 - Pass Details

Date: 14 July 2020
Orbit: 466 x 504 km, 97.0° (Epoch: 10 August)

Event Time Altitude Azimuth Distance (km) Brightness Sun altitude
Rises 08:42:58 0° 8° (N) 2,545 6.6 -11.7°
Reaches altitude 10° 08:45:02 10° 6° (N) 1,666 5.6 -11.3°
Maximum altitude 08:48:36 74° 281° (W) 509 2.5 -10.5°
Drops below altitude 10° 08:52:11 10° 195° (SSW) 1,667 5.0 -9.7°
Sets 08:54:15 0° 193° (SSW) 2,547 5.9 -9.3°
